Location: Unspecified
(22.6800°N, 112.2000°E)
Time: 15:09:18
(UTC+08:00)

S-56A Canister/Altair - Pass Details

Date: 27 July 2021
Orbit: 632 x 2500 km, 38.9° (Epoch: 24 September)

Event Time Altitude Azimuth Distance (km) Brightness Sun altitude
Rises 00:55:59 0° 295° (WNW) 5,222 12.0 -47.8°
Reaches altitude 10° 01:00:18 10° 287° (WNW) 3,903 11.1 -47.7°
Enters shadow 01:00:28 11° 286° (WNW) 3,849 11.1 -47.7°
Maximum altitude 01:08:26 31° 230° (SW) 2,020 - -47.4°
Drops below altitude 10° 01:14:14 10° 169° (SSE) 2,725 - -47.1°
Sets 01:16:43 0° 158° (SSE) 3,468 - -47.0°
